Terug naar catalogus

STARLINK-36039

ActiefCommunicatieVLEO
NORAD 66612·PAYLOAD·🇺🇸 United States

Gelanceerd Nov 22, 2025 vanaf Cape Canaveral Space Force Station

Loading…

Volgende Passages (komende 24 uur)

TLE

VersSource: CelesTrak SupGP

Epoch: Sep 14, 2026, 23:23 UTC

1 66612C 25270AA  26257.97479167  .00052319  00000+0  18937-2 0  2575
2 66612  43.0027  67.3782 0001774 268.8655  50.0492 15.27573799    17

Volg STARLINK-36039 in realtime met AllMySat

Download on the App Store